CW1327 Weather Reports


Display with metric or nautical units.
time (UTC)temp
F
wind
direction
speed
MPH
gust
MPH
rain 1hr
in
rain 24hr
in
rain mn
in
humidity
%
barometer
mb
20200219065121 69 76 0.0 2.0 0.00 0.00 0.00 95 1020.7
20200219064120 69 37 0.0 1.0 0.00 0.00 0.00 95 1020.6
20200219063620 69 72 0.0 1.0 0.00 0.00 0.00 95 1020.7
20200219063136 69 76 0.0 1.0 0.00 0.00 0.00 96 1020.6
20200219062639 69 77 0.0 0.0 0.00 0.00 0.00 96 1020.6
20200219062139 69 77 0.0 0.0 0.00 0.00 0.00 96 1020.6
20200219061639 69 77 0.0 1.0 0.00 0.00 0.00 96 1020.7
20200219061138 69 77 0.0 1.0 0.00 0.00 0.00 96 1020.7
20200219060638 69 77 0.0 1.0 0.00 0.00 0.00 96 1020.7
20200219060121 69 84 0.0 1.0 0.00 0.00 0.00 96 1020.7
20200219055622 69 84 0.0 1.0 0.00 0.00 0.00 96 1020.7
20200219055122 69 91 0.0 0.0 0.00 0.00 0.00 96 1020.6
20200219054621 68 91 0.0 1.0 0.00 0.00 0.00 97 1020.7
20200219054120 68 91 0.0 0.0 0.00 0.00 0.00 97 1020.7
20200219053623 68 92 0.0 0.0 0.00 0.00 0.00 97 1020.7
20200219053142 68 92 0.0 0.0 0.00 0.00 0.00 97 1020.8
20200219052637 68 91 0.0 0.0 0.00 0.00 0.00 97 1020.8
20200219052137 68 91 0.0 0.0 0.00 0.00 0.00 97 1020.8
20200219051637 68 92 0.0 0.0 0.00 0.00 0.00 96 1020.7
20200219051139 68 92 0.0 0.0 0.00 0.00 0.00 96 1020.6
20200219050639 68 91 0.0 0.0 0.00 0.00 0.00 97 1020.7
20200219050137 68 92 0.0 0.0 0.00 0.00 0.00 96 1020.5
20200219045622 68 92 0.0 0.0 0.00 0.00 0.00 96 1020.5
20200219045127 68 92 0.0 0.0 0.00 0.00 0.00 96 1020.5
20200219044623 68 92 0.0 0.0 0.00 0.00 0.00 96 1020.5
20200219044122 68 92 0.0 0.0 0.00 0.00 0.00 96 1020.4
20200219043623 68 92 0.0 0.0 0.00 0.00 0.00 96 1020.5
20200219043122 68 91 0.0 0.0 0.00 0.00 0.00 95 1020.5
20200219042129 68 92 0.0 0.0 0.00 0.00 0.00 96 1020.5
20200219041633 68 92 0.0 0.0 0.00 0.00 0.00 95 1020.5
20200219041134 68 92 0.0 0.0 0.00 0.00 0.00 95 1020.5
20200219040635 68 92 0.0 0.0 0.00 0.00 0.00 95 1020.5
20200219040137 68 91 0.0 0.0 0.00 0.00 0.00 95 1020.5
20200219035637 68 91 0.0 0.0 0.00 0.00 0.00 95 1020.5
20200219035122 69 92 0.0 0.0 0.00 0.00 0.00 95 1020.4
20200219034619 68 92 0.0 0.0 0.00 0.00 0.00 94 1020.4
20200219034120 68 92 0.0 0.0 0.00 0.00 0.00 94 1020.5
20200219033640 68 92 0.0 0.0 0.00 0.00 0.00 93 1020.5
20200219033139 68 92 0.0 0.0 0.00 0.00 0.00 93 1020.5
20200219032620 69 92 0.0 1.0 0.00 0.00 0.00 93 1020.5
20200219032138 69 92 0.0 1.0 0.00 0.00 0.00 93 1020.5
20200219031636 69 288 0.0 0.0 0.00 0.00 0.00 93 1020.6
20200219031136 69 287 0.0 0.0 0.00 0.00 0.00 93 1020.6
20200219030635 69 287 0.0 0.0 0.00 0.00 0.00 93 1020.5
20200219030136 69 288 0.0 0.0 0.00 0.00 0.00 92 1020.6
20200219025637 69 288 0.0 0.0 0.00 0.00 0.00 92 1020.5
20200219025134 69 287 0.0 0.0 0.00 0.00 0.00 92 1020.6
20200219024634 70 288 0.0 0.0 0.00 0.00 0.00 92 1020.6
20200219024124 70 288 0.0 0.0 0.00 0.00 0.00 92 1020.4
20200219023642 70 287 0.0 0.0 0.00 0.00 0.00 92 1020.5
20200219023123 70 287 0.0 0.0 0.00 0.00 0.00 92 1020.4
20200219022619 70 288 0.0 0.0 0.00 0.00 0.00 92 1020.4
20200219022139 70 288 0.0 0.0 0.00 0.00 0.00 92 1020.3
20200219021634 70 288 0.0 0.0 0.00 0.00 0.00 91 1020.3
20200219021149 70 287 0.0 0.0 0.00 0.00 0.00 91 1020.2
20200219020636 71 287 0.0 0.0 0.00 0.00 0.00 91 1020.2
20200219020122 71 288 0.0 0.0 0.00 0.00 0.00 90 1020.2
20200219015627 71 288 0.0 0.0 0.00 0.00 0.00 90 1020.2
20200219015122 71 287 0.0 0.0 0.00 0.00 0.00 90 1019.9
20200219014621 71 288 0.0 0.0 0.00 0.00 0.00 90 1019.9
20200219014120 71 288 0.0 0.0 0.00 0.00 0.00 89 1019.8
20200219013139 72 287 0.0 0.0 0.00 0.00 0.00 88 1019.7
20200219012639 72 288 0.0 0.0 0.00 0.00 0.00 88 1019.7
20200219012120 72 288 0.0 0.0 0.00 0.00 0.00 88 1019.6
20200219011620 72 288 0.0 1.0 0.00 0.00 0.00 87 1019.6
20200219011142 73 287 0.0 1.0 0.00 0.00 0.00 86 1019.6
20200219010619 73 288 0.0 0.0 0.00 0.00 0.00 85 1019.7
20200219010120 73 287 0.0 0.0 0.00 0.00 0.00 84 1019.7
20200219005624 73 288 0.0 0.0 0.00 0.00 0.00 84 1019.6
20200219005238 74 287 0.0 0.0 0.00 0.00 0.00 84 1019.5
20200219004649 74 288 0.0 0.0 0.00 0.00 0.00 84 1019.5
20200219004134 74 288 0.0 0.0 0.00 0.00 0.00 83 1019.5
20200219003635 75 288 0.0 0.0 0.00 0.00 0.00 82 1019.4
20200219003136 75 287 0.0 1.0 0.00 0.00 0.00 82 1019.3
20200219002119 75 287 0.0 0.0 0.00 0.00 0.00 81 1019.2
20200219001621 76 287 0.0 1.0 0.00 0.00 0.00 80 1019.3
20200219001119 76 287 0.0 1.0 0.00 0.00 0.00 79 1019.2
20200219000619 77 287 0.0 2.0 0.00 0.00 0.00 79 1019.3
20200219000119 77 295 1.0 2.0 0.00 0.00 0.00 78 1019.2
20200218235621 77 245 1.0 2.0 0.00 0.00 0.00 77 1019.3
20200218235120 78 291 1.0 2.0 0.00 0.00 0.00 77 1019.2
20200218234619 78 276 0.0 2.0 0.00 0.00 0.00 76 1019.1
20200218234139 78 276 1.0 3.0 0.00 0.00 0.00 76 1019.2
20200218233622 79 259 2.0 3.0 0.00 0.00 0.00 75 1019.2
20200218233120 79 253 1.0 4.0 0.00 0.00 0.00 74 1019.3
20200218232619 79 295 2.0 5.0 0.00 0.00 0.00 74 1019.2
20200218232139 80 271 3.0 8.0 0.00 0.00 0.00 73 1019.2
20200218231638 80 288 3.0 8.0 0.00 0.00 0.00 71 1019.1
20200218231138 81 265 5.0 8.0 0.00 0.00 0.00 69 1019.2
20200218230655 82 255 2.0 6.0 0.00 0.00 0.00 68 1019.0
20200218230134 82 263 3.0 4.0 0.00 0.00 0.00 66 1018.9
20200218225638 83 250 2.0 3.0 0.00 0.00 0.00 64 1018.8
20200218225136 83 245 1.0 3.0 0.00 0.00 0.00 62 1018.6
20200218224634 83 154 0.0 1.0 0.00 0.00 0.00 62 1018.5
20200218224135 83 143 0.0 0.0 0.00 0.00 0.00 63 1018.4
20200218223621 83 143 0.0 2.0 0.00 0.00 0.00 62 1018.4
20200218223123 84 143 0.0 2.0 0.00 0.00 0.00 62 1018.3
20200218222622 84 203 0.0 3.0 0.00 0.00 0.00 61 1018.3
20200218222143 84 203 1.0 3.0 0.00 0.00 0.00 60 1018.3
20200218221648 84 74 1.0 3.0 0.00 0.00 0.00 61 1018.3
20200218221133 85 146 1.0 3.0 0.00 0.00 0.00 58 1018.4
20200218220653 85 164 2.0 3.0 0.00 0.00 0.00 58 1018.6
20200218220134 85 101 1.0 4.0 0.00 0.00 0.00 58 1018.6
20200218215635 85 160 1.0 6.0 0.00 0.00 0.00 57 1018.7
20200218215136 85 136 2.0 6.0 0.00 0.00 0.00 57 1018.6
20200218214654 85 173 0.0 6.0 0.00 0.00 0.00 58 1018.6
20200218214140 85 141 1.0 6.0 0.00 0.00 0.00 56 1018.6
20200218213640 86 156 2.0 7.0 0.00 0.00 0.00 57 1018.5
20200218213141 85 172 3.0 7.0 0.00 0.00 0.00 57 1018.5
20200218212619 86 109 3.0 5.0 0.00 0.00 0.00 57 1018.6
20200218212119 86 108 2.0 4.0 0.00 0.00 0.00 56 1018.5
20200218211639 86 203 3.0 7.0 0.00 0.00 0.00 56 1018.5
20200218211146 86 205 4.0 7.0 0.00 0.00 0.00 56 1018.6
20200218210628 86 205 2.0 6.0 0.00 0.00 0.00 55 1018.6
20200218210146 87 192 2.0 6.0 0.00 0.00 0.00 55 1018.6
20200218205635 86 226 2.0 6.0 0.00 0.00 0.00 56 1018.6
20200218205133 87 129 3.0 6.0 0.00 0.00 0.00 55 1018.6
20200218204632 87 118 1.0 5.0 0.00 0.00 0.00 56 1018.4
20200218204133 87 155 2.0 6.0 0.00 0.00 0.00 55 1018.5
20200218203630 87 149 3.0 6.0 0.00 0.00 0.00 55 1018.5
20200218203153 86 224 4.0 6.0 0.00 0.00 0.00 55 1018.5
20200218202653 86 129 2.0 6.0 0.00 0.00 0.00 56 1018.5
20200218202121 87 160 2.0 6.0 0.00 0.00 0.00 55 1018.5
20200218201640 86 120 3.0 6.0 0.00 0.00 0.00 54 1018.5
20200218201119 87 125 3.0 6.0 0.00 0.00 0.00 53 1018.5
20200218200619 88 116 1.0 6.0 0.00 0.00 0.00 54 1018.4
20200218200138 88 156 3.0 5.0 0.00 0.00 0.00 54 1018.6
20200218195639 87 169 2.0 7.0 0.00 0.00 0.00 54 1018.6
20200218195136 87 267 3.0 7.0 0.00 0.00 0.00 54 1018.8
20200218194637 88 236 3.0 7.0 0.00 0.00 0.00 53 1018.8
20200218194120 88 205 3.0 6.0 0.00 0.00 0.00 54 1018.9
20200218193621 88 153 3.0 6.0 0.00 0.00 0.00 55 1018.9
20200218193137 88 129 3.0 5.0 0.00 0.00 0.00 53 1018.9
20200218192621 88 278 1.0 7.0 0.00 0.00 0.00 55 1019.1
20200218192122 88 210 3.0 11.0 0.00 0.00 0.00 54 1019.2
20200218191621 88 259 3.0 11.0 0.00 0.00 0.00 55 1019.2
20200218191141 88 230 2.0 7.0 0.00 0.00 0.00 54 1019.3
20200218190638 88 157 4.0 7.0 0.00 0.00 0.00 56 1019.4
20200218190139 87 319 1.0 8.0 0.00 0.00 0.00 58 1019.3
20200218185619 87 96 1.0 8.0 0.00 0.00 0.00 57 1019.4
20200218185137 87 105 4.0 8.0 0.00 0.00 0.00 56 1019.4
20200218184638 88 152 4.0 10.0 0.00 0.00 0.00 56 1019.4
20200218184135 87 186 2.0 10.0 0.00 0.00 0.00 58 1019.5
20200218183619 88 73 4.0 8.0 0.00 0.00 0.00 57 1019.7
20200218183137 87 165 2.0 7.0 0.00 0.00 0.00 60 1019.8
20200218182650 87 88 3.0 6.0 0.00 0.00 0.00 59 1019.9
20200218182141 86 143 1.0 9.0 0.00 0.00 0.00 61 1019.8
20200218181647 86 107 3.0 11.0 0.00 0.00 0.00 60 1020.0
20200218181135 86 154 3.0 11.0 0.00 0.00 0.00 60 1020.0
20200218180625 86 158 4.0 6.0 0.00 0.00 0.00 61 1020.1
20200218180145 85 217 2.0 9.0 0.00 0.00 0.00 64 1020.3
20200218175633 85 133 5.0 9.0 0.00 0.00 0.00 62 1020.3
20200218175144 85 115 4.0 8.0 0.00 0.00 0.00 63 1020.3
20200218174649 86 117 3.0 8.0 0.00 0.00 0.00 63 1020.5
20200218174138 86 171 4.0 8.0 0.00 0.00 0.00 63 1020.7
20200218173618 86 145 3.0 7.0 0.00 0.00 0.00 63 1020.8
20200218173140 85 262 2.0 10.0 0.00 0.00 0.00 66 1020.8
20200218172641 85 139 3.0 10.0 0.00 0.00 0.00 65 1020.9
20200218172120 85 122 2.0 8.0 0.00 0.00 0.00 66 1021.0
20200218171635 85 245 4.0 8.0 0.00 0.00 0.00 66 1021.0
20200218171133 84 144 4.0 8.0 0.00 0.00 0.00 67 1021.0
20200218170628 84 143 3.0 8.0 0.00 0.00 0.00 68 1021.1
20200218170129 83 267 3.0 7.0 0.00 0.00 0.00 69 1021.2
20200218165124 83 149 3.0 8.0 0.00 0.00 0.00 69 1021.4
20200218164625 83 210 3.0 8.0 0.00 0.00 0.00 69 1021.6
20200218164121 83 194 3.0 8.0 0.00 0.00 0.00 70 1021.6
20200218163621 82 122 3.0 8.0 0.00 0.00 0.00 71 1021.7
20200218163118 82 243 4.0 7.0 0.00 0.00 0.00 71 1021.8
20200218162640 83 158 4.0 7.0 0.00 0.00 0.00 71 1021.8
20200218162138 83 221 3.0 7.0 0.00 0.00 0.00 71 1021.7
20200218161636 83 136 4.0 6.0 0.00 0.00 0.00 71 1021.7
20200218161128 82 96 3.0 6.0 0.00 0.00 0.00 72 1021.8
20200218160626 82 200 3.0 8.0 0.00 0.00 0.00 72 1021.9
20200218160122 82 134 3.0 8.0 0.00 0.00 0.00 72 1021.9
20200218155621 82 130 3.0 7.0 0.00 0.00 0.00 73 1021.9
20200218155139 82 128 2.0 6.0 0.00 0.00 0.00 74 1021.8
20200218154637 81 210 2.0 6.0 0.00 0.00 0.00 74 1021.7
20200218154122 81 221 2.0 8.0 0.00 0.00 0.00 75 1021.7
20200218153621 80 99 2.0 8.0 0.00 0.00 0.00 76 1021.8
20200218153139 80 224 2.0 8.0 0.00 0.00 0.00 77 1021.8
20200218152641 80 137 3.0 8.0 0.00 0.00 0.00 78 1021.8
20200218152119 79 264 1.0 6.0 0.00 0.00 0.00 79 1022.0
20200218151638 79 130 3.0 7.0 0.00 0.00 0.00 80 1022.0
20200218151124 78 139 3.0 7.0 0.00 0.00 0.00 81 1021.9
20200218150620 78 104 1.0 9.0 0.00 0.00 0.00 82 1022.0
20200218150121 77 176 4.0 9.0 0.00 0.00 0.00 82 1021.9
20200218145623 77 214 2.0 6.0 0.00 0.00 0.00 83 1022.0
20200218145121 76 238 2.0 7.0 0.00 0.00 0.00 85 1022.0
20200218144622 76 198 3.0 7.0 0.00 0.00 0.00 86 1021.9
20200218144121 75 129 2.0 5.0 0.00 0.00 0.00 87 1021.8
20200218143639 75 154 1.0 6.0 0.00 0.00 0.00 88 1021.9
20200218143137 74 210 2.0 6.0 0.00 0.00 0.00 90 1021.8
20200218142618 73 162 3.0 5.0 0.00 0.00 0.00 91 1021.7
20200218142134 73 156 2.0 5.0 0.00 0.00 0.00 94 1021.8
20200218141631 72 229 1.0 5.0 0.00 0.00 0.00 95 1021.7
20200218141127 72 147 2.0 5.0 0.00 0.00 0.00 97 1021.6
20200218140623 71 194 1.0 4.0 0.00 0.00 0.00 98 1021.5
20200218140120 70 115 0.0 4.0 0.00 0.00 0.00 98 1021.5
20200218135623 70 160 1.0 3.0 0.00 0.00 0.00 98 1021.4
20200218135121 70 114 1.0 3.0 0.00 0.00 0.00 98 1021.3
20200218134621 69 165 0.0 1.0 0.00 0.00 0.00 98 1021.3
20200218134139 69 128 0.0 3.0 0.00 0.00 0.00 98 1021.2
20200218133639 68 134 1.0 3.0 0.00 0.00 0.00 98 1021.1
20200218133118 68 136 1.0 4.0 0.00 0.00 0.00 98 1021.1
20200218132619 68 314 0.0 4.0 0.00 0.00 0.00 98 1021.0
20200218132118 68 68 0.0 3.0 0.00 0.00 0.00 98 1021.0
20200218131634 67 75 0.0 3.0 0.00 0.00 0.00 98 1021.0
20200218131132 67 179 0.0 1.0 0.00 0.00 0.00 98 1021.0
20200218130628 67 179 0.0 1.0 0.00 0.00 0.00 98 1020.9
20200218130120 67 15 0.0 1.0 0.00 0.00 0.00 98 1020.9
20200218125620 67 14 0.0 1.0 0.00 0.00 0.00 98 1020.9
20200218125120 66 115 0.0 1.0 0.00 0.00 0.00 98 1020.8
20200218124621 66 115 0.0 1.0 0.00 0.00 0.00 98 1020.8
20200218124142 66 115 0.0 1.0 0.00 0.00 0.00 98 1020.8
20200218123639 66 115 0.0 1.0 0.00 0.00 0.00 98 1020.7
20200218123137 66 120 0.0 0.0 0.00 0.00 0.00 98 1020.5
20200218122620 66 120 0.0 0.0 0.00 0.00 0.00 98 1020.6
20200218122120 66 120 0.0 0.0 0.00 0.00 0.00 98 1020.5
20200218121137 65 120 0.0 0.0 0.00 0.00 0.00 98 1020.5
20200218120619 65 120 0.0 0.0 0.00 0.00 0.00 98 1020.4
20200218120139 65 120 0.0 0.0 0.00 0.00 0.00 98 1020.4
20200218115118 66 120 0.0 0.0 0.00 0.00 0.00 98 1020.1
20200218114620 66 120 0.0 0.0 0.00 0.00 0.00 98 1020.0
20200218114120 66 120 0.0 0.0 0.00 0.00 0.00 98 1019.8
20200218113641 66 120 0.0 0.0 0.00 0.00 0.00 98 1019.7
20200218113138 66 120 0.0 1.0 0.00 0.00 0.00 98 1019.5
20200218112639 66 120 0.0 1.0 0.00 0.00 0.00 98 1019.5
20200218112132 66 15 0.0 0.0 0.00 0.00 0.00 98 1019.4
20200218111637 66 15 0.0 0.0 0.00 0.00 0.00 98 1019.4
20200218110631 66 15 0.0 0.0 0.00 0.00 0.00 97 1019.3
20200218105629 66 15 0.0 0.0 0.00 0.00 0.00 97 1019.4
20200218105127 66 15 0.0 0.0 0.00 0.00 0.00 97 1019.3
20200218104630 66 15 0.0 0.0 0.00 0.00 0.00 97 1019.1
20200218104133 66 15 0.0 0.0 0.00 0.00 0.00 97 1019.1
20200218103632 66 15 0.0 0.0 0.00 0.00 0.00 97 1019.2
20200218103133 66 16 0.0 0.0 0.00 0.00 0.00 97 1019.2
20200218102633 66 15 0.0 0.0 0.00 0.00 0.00 97 1019.3
20200218102133 66 15 0.0 0.0 0.00 0.00 0.00 97 1019.2
20200218101632 66 15 0.0 0.0 0.00 0.00 0.00 97 1019.3
20200218101136 66 15 0.0 0.0 0.00 0.00 0.00 97 1019.2
20200218100637 66 15 0.0 0.0 0.00 0.00 0.00 97 1019.1
20200218100121 66 15 0.0 0.0 0.00 0.00 0.00 97 1019.2
20200218095620 66 15 0.0 1.0 0.00 0.00 0.00 97 1019.2
20200218095139 67 16 0.0 1.0 0.00 0.00 0.00 97 1019.0
20200218094633 67 16 0.0 1.0 0.00 0.00 0.00 97 1018.9
20200218094136 67 16 0.0 1.0 0.00 0.00 0.00 97 1019.0
20200218093718 67 16 0.0 1.0 0.00 0.00 0.00 97 1019.1
20200218093136 67 16 0.0 1.0 0.00 0.00 0.00 97 1019.1
20200218092636 67 16 0.0 1.0 0.00 0.00 0.00 97 1019.1
20200218091131 67 15 0.0 0.0 0.00 0.00 0.00 97 1019.0
20200218090630 67 15 0.0 0.0 0.00 0.00 0.00 97 1018.9
20200218090129 67 15 0.0 0.0 0.00 0.00 0.00 97 1019.0
20200218085624 67 15 0.0 1.0 0.00 0.00 0.00 97 1018.8
20200218085124 67 15 0.0 1.0 0.00 0.00 0.00 97 1018.8
20200218084621 66 15 0.0 0.0 0.00 0.00 0.00 97 1018.6
20200218084125 66 15 0.0 0.0 0.00 0.00 0.00 96 1018.7
20200218083621 66 15 0.0 0.0 0.00 0.00 0.00 96 1018.8
20200218083137 66 15 0.0 0.0 0.00 0.00 0.00 96 1018.8
20200218082619 66 15 0.0 0.0 0.00 0.00 0.00 96 1018.9
20200218082119 66 15 0.0 0.0 0.00 0.00 0.00 96 1018.8
20200218081620 66 15 0.0 0.0 0.00 0.00 0.00 96 1018.8
20200218081137 66 15 0.0 0.0 0.00 0.00 0.00 96 1018.8
20200218080639 66 15 0.0 0.0 0.00 0.00 0.00 96 1018.8
20200218080134 66 15 0.0 0.0 0.00 0.00 0.00 96 1018.9
20200218075619 66 15 0.0 0.0 0.00 0.00 0.00 96 1019.0
20200218075124 66 16 0.0 0.0 0.00 0.00 0.00 96 1018.9
20200218074622 66 16 0.0 0.0 0.00 0.00 0.00 96 1018.9
20200218074119 66 16 0.0 0.0 0.00 0.00 0.00 96 1019.0
20200218073639 67 15 0.0 1.0 0.00 0.00 0.00 96 1019.0
20200218073122 67 50 0.0 2.0 0.00 0.00 0.00 96 1019.0
20200218072619 67 50 0.0 2.0 0.00 0.00 0.00 96 1019.1
20200218072118 67 51 0.0 1.0 0.00 0.00 0.00 96 1019.0
20200218071622 67 51 0.0 0.0 0.00 0.00 0.00 96 1019.1
20200218071120 67 51 0.0 0.0 0.00 0.00 0.00 95 1019.0
20200218070619 67 51 0.0 1.0 0.00 0.00 0.00 95 1019.1
20200218070120 67 51 0.0 1.0 0.00 0.00 0.00 95 1019.1
20200218065640 67 51 0.0 1.0 0.00 0.00 0.00 95 1019.2